Year,Month,Day,Hour,Minute,Value (Times are PST for temperature in C)
2016,08,16,00,00,15.70
2016,08,16,00,01,15.60
2016,08,16,00,02,15.60
2016,08,16,00,03,15.60
2016,08,16,00,04,15.60
2016,08,16,00,05,15.60
2016,08,16,00,06,15.60
2016,08,16,00,07,15.50
2016,08,16,00,08,15.50
2016,08,16,00,09,15.50
2016,08,16,00,10,15.50
2016,08,16,00,11,15.50
2016,08,16,00,12,15.50
2016,08,16,00,13,15.50
2016,08,16,00,14,15.40
2016,08,16,00,15,15.40
2016,08,16,00,16,15.40
2016,08,16,00,17,15.40
2016,08,16,00,18,15.40
2016,08,16,00,19,15.40
2016,08,16,00,20,15.40
2016,08,16,00,21,15.40
2016,08,16,00,22,15.40
2016,08,16,00,23,15.30
2016,08,16,00,24,15.30
2016,08,16,00,25,15.30
2016,08,16,00,26,15.30
2016,08,16,00,27,15.30
2016,08,16,00,28,15.30
2016,08,16,00,29,15.30
2016,08,16,00,30,15.30
2016,08,16,00,31,15.30
2016,08,16,00,32,15.30
2016,08,16,00,33,15.30
2016,08,16,00,34,15.30
2016,08,16,00,35,15.30
2016,08,16,00,36,15.30
2016,08,16,00,37,15.30
2016,08,16,00,38,15.30
2016,08,16,00,39,15.30
2016,08,16,00,40,15.20
2016,08,16,00,41,15.20
2016,08,16,00,42,15.20
2016,08,16,00,43,15.20
2016,08,16,00,44,15.20
2016,08,16,00,45,15.20
2016,08,16,00,46,15.20
2016,08,16,00,47,15.20
2016,08,16,00,48,15.20
2016,08,16,00,49,15.20
2016,08,16,00,50,15.20
2016,08,16,00,51,15.20
2016,08,16,00,52,15.20
2016,08,16,00,53,15.20
2016,08,16,00,54,15.30
2016,08,16,00,55,15.30
2016,08,16,00,56,15.30
2016,08,16,00,57,15.30
2016,08,16,00,58,15.30
2016,08,16,00,59,15.30
2016,08,16,01,00,15.30
2016,08,16,01,01,15.40
2016,08,16,01,02,15.40
2016,08,16,01,03,15.40
2016,08,16,01,04,15.40
2016,08,16,01,05,15.40
2016,08,16,01,06,15.40
2016,08,16,01,07,15.40
2016,08,16,01,08,15.40
2016,08,16,01,09,15.40
2016,08,16,01,10,15.40
2016,08,16,01,11,15.40
2016,08,16,01,12,15.40
2016,08,16,01,13,15.40
2016,08,16,01,14,15.30
2016,08,16,01,15,15.30
2016,08,16,01,16,15.30
2016,08,16,01,17,15.30
2016,08,16,01,18,15.30
2016,08,16,01,19,15.30
2016,08,16,01,20,15.30
2016,08,16,01,21,15.20
2016,08,16,01,22,15.20
2016,08,16,01,23,15.20
2016,08,16,01,24,15.20
2016,08,16,01,25,15.20
2016,08,16,01,26,15.20
2016,08,16,01,27,15.10
2016,08,16,01,28,15.10
2016,08,16,01,29,15.10
2016,08,16,01,30,15.10
2016,08,16,01,31,15.10
2016,08,16,01,32,15.00
2016,08,16,01,33,15.00
2016,08,16,01,34,15.00
2016,08,16,01,35,15.00
2016,08,16,01,36,15.00
2016,08,16,01,37,15.00
2016,08,16,01,38,15.00
2016,08,16,01,39,15.00
2016,08,16,01,40,14.90
2016,08,16,01,41,14.90
2016,08,16,01,42,14.90
2016,08,16,01,43,14.90
2016,08,16,01,44,14.90
2016,08,16,01,45,14.90
2016,08,16,01,46,14.90
2016,08,16,01,47,14.90
2016,08,16,01,48,14.80
2016,08,16,01,49,14.80
2016,08,16,01,50,14.80
2016,08,16,01,51,14.80
2016,08,16,01,52,14.80
2016,08,16,01,53,14.80
2016,08,16,01,54,14.80
2016,08,16,01,55,14.70
2016,08,16,01,56,14.70
2016,08,16,01,57,14.70
2016,08,16,01,58,14.70
2016,08,16,01,59,14.70
2016,08,16,02,00,14.70
2016,08,16,02,01,14.70
2016,08,16,02,02,14.60
2016,08,16,02,03,14.60
2016,08,16,02,04,14.60
2016,08,16,02,05,14.60
2016,08,16,02,06,14.60
2016,08,16,02,07,14.60
2016,08,16,02,08,14.60
2016,08,16,02,09,14.60
2016,08,16,02,10,14.60
2016,08,16,02,11,14.60
2016,08,16,02,12,14.60
2016,08,16,02,13,14.60
2016,08,16,02,14,14.60
2016,08,16,02,15,14.70
2016,08,16,02,16,14.70
2016,08,16,02,17,14.70
2016,08,16,02,18,14.70
2016,08,16,02,19,14.70
2016,08,16,02,20,14.60
2016,08,16,02,21,14.60
2016,08,16,02,22,14.60
2016,08,16,02,23,14.60
2016,08,16,02,24,14.60
2016,08,16,02,25,14.60
2016,08,16,02,26,14.60
2016,08,16,02,27,14.50
2016,08,16,02,28,14.50
2016,08,16,02,29,14.50
2016,08,16,02,30,14.50
2016,08,16,02,31,14.40
2016,08,16,02,32,14.40
2016,08,16,02,33,14.40
2016,08,16,02,34,14.40
2016,08,16,02,35,14.40
2016,08,16,02,36,14.40
2016,08,16,02,37,14.40
2016,08,16,02,38,14.40
2016,08,16,02,39,14.40
2016,08,16,02,40,14.40
2016,08,16,02,41,14.30
2016,08,16,02,42,14.30
2016,08,16,02,43,14.30
2016,08,16,02,44,14.40
2016,08,16,02,45,14.40
2016,08,16,02,46,14.40
2016,08,16,02,47,14.40
2016,08,16,02,48,14.40
2016,08,16,02,49,14.40
2016,08,16,02,50,14.50
2016,08,16,02,51,14.50
2016,08,16,02,52,14.50
2016,08,16,02,53,14.50
2016,08,16,02,54,14.50
2016,08,16,02,55,14.50
2016,08,16,02,56,14.40
2016,08,16,02,57,14.40
2016,08,16,02,58,14.40
2016,08,16,02,59,14.40
2016,08,16,03,00,14.40
2016,08,16,03,01,14.40
2016,08,16,03,02,14.30
2016,08,16,03,03,14.30
2016,08,16,03,04,14.30
2016,08,16,03,05,14.30
2016,08,16,03,06,14.30
2016,08,16,03,07,14.30
2016,08,16,03,08,14.30
2016,08,16,03,09,14.30
2016,08,16,03,10,14.30
2016,08,16,03,11,14.30
2016,08,16,03,12,14.30
2016,08,16,03,13,14.30
2016,08,16,03,14,14.20
2016,08,16,03,15,14.20
2016,08,16,03,16,14.20
2016,08,16,03,17,14.20
2016,08,16,03,18,14.20
2016,08,16,03,19,14.20
2016,08,16,03,20,14.20
2016,08,16,03,21,14.20
2016,08,16,03,22,14.10
2016,08,16,03,23,14.10
2016,08,16,03,24,14.10
2016,08,16,03,25,14.10
2016,08,16,03,26,14.00
2016,08,16,03,27,14.00
2016,08,16,03,28,14.00
2016,08,16,03,29,14.00
2016,08,16,03,30,13.90
2016,08,16,03,31,13.90
2016,08,16,03,32,13.90
2016,08,16,03,33,13.90
2016,08,16,03,34,13.90
2016,08,16,03,35,13.90
2016,08,16,03,36,13.90
2016,08,16,03,37,13.90
2016,08,16,03,38,13.90
2016,08,16,03,39,13.90
2016,08,16,03,40,13.90
2016,08,16,03,41,13.90
2016,08,16,03,42,13.90
2016,08,16,03,43,13.90
2016,08,16,03,44,13.90
2016,08,16,03,45,13.90
2016,08,16,03,46,13.90
2016,08,16,03,47,13.90
2016,08,16,03,48,13.90
2016,08,16,03,49,13.90
2016,08,16,03,50,13.80
2016,08,16,03,51,13.80
2016,08,16,03,52,13.80
2016,08,16,03,53,13.80
2016,08,16,03,54,13.80
2016,08,16,03,55,13.90
2016,08,16,03,56,13.90
2016,08,16,03,57,13.90
2016,08,16,03,58,13.90
2016,08,16,03,59,13.90
2016,08,16,04,00,13.90
2016,08,16,04,01,13.90
2016,08,16,04,02,13.90
2016,08,16,04,03,13.80
2016,08,16,04,04,13.80
2016,08,16,04,05,13.80
2016,08,16,04,06,13.80
2016,08,16,04,07,13.80
2016,08,16,04,08,13.70
2016,08,16,04,09,13.70
2016,08,16,04,10,13.60
2016,08,16,04,11,13.60
2016,08,16,04,12,13.60
2016,08,16,04,13,13.60
2016,08,16,04,14,13.60
2016,08,16,04,15,13.50
2016,08,16,04,16,13.50
2016,08,16,04,17,13.50
2016,08,16,04,18,13.50
2016,08,16,04,19,13.50
2016,08,16,04,20,13.50
2016,08,16,04,21,13.50
2016,08,16,04,22,13.50
2016,08,16,04,23,13.40
2016,08,16,04,24,13.40
2016,08,16,04,25,13.40
2016,08,16,04,26,13.40
2016,08,16,04,27,13.40
2016,08,16,04,28,13.40
2016,08,16,04,29,13.40
2016,08,16,04,30,13.40
2016,08,16,04,31,13.40
2016,08,16,04,32,13.40
2016,08,16,04,33,13.40
2016,08,16,04,34,13.40
2016,08,16,04,35,13.40
2016,08,16,04,36,13.40
2016,08,16,04,37,13.40
2016,08,16,04,38,13.50
2016,08,16,04,39,13.50
2016,08,16,04,40,13.50
2016,08,16,04,41,13.50
2016,08,16,04,42,13.50
2016,08,16,04,43,13.50
2016,08,16,04,44,13.50
2016,08,16,04,45,13.50
2016,08,16,04,46,13.40
2016,08,16,04,47,13.40
2016,08,16,04,48,13.40
2016,08,16,04,49,13.40
2016,08,16,04,50,13.40
2016,08,16,04,51,13.40
2016,08,16,04,52,13.30
2016,08,16,04,53,13.30
2016,08,16,04,54,13.30
2016,08,16,04,55,13.30
2016,08,16,04,56,13.30
2016,08,16,04,57,13.30
2016,08,16,04,58,13.30
2016,08,16,04,59,13.30
2016,08,16,05,00,13.30
2016,08,16,05,01,13.30
2016,08,16,05,02,13.30
2016,08,16,05,03,13.30
2016,08,16,05,04,13.30
2016,08,16,05,05,13.30
2016,08,16,05,06,13.30
2016,08,16,05,07,13.30
2016,08,16,05,08,13.30
2016,08,16,05,09,13.20
2016,08,16,05,10,13.20
2016,08,16,05,11,13.20
2016,08,16,05,12,13.20
2016,08,16,05,13,13.20
2016,08,16,05,14,13.20
2016,08,16,05,15,13.20
2016,08,16,05,16,13.30
2016,08,16,05,17,13.30
2016,08,16,05,18,13.30
2016,08,16,05,19,13.30
2016,08,16,05,20,13.30
2016,08,16,05,21,13.30
2016,08,16,05,22,13.30
2016,08,16,05,23,13.30
2016,08,16,05,24,13.30
2016,08,16,05,25,13.30
2016,08,16,05,26,13.30
2016,08,16,05,27,13.20
2016,08,16,05,28,13.20
2016,08,16,05,29,13.20
2016,08,16,05,30,13.20
2016,08,16,05,31,13.20
2016,08,16,05,32,13.20
2016,08,16,05,33,13.20
2016,08,16,05,34,13.10
2016,08,16,05,35,13.10
2016,08,16,05,36,13.10
2016,08,16,05,37,13.10
2016,08,16,05,38,13.10
2016,08,16,05,39,13.00
2016,08,16,05,40,13.00
2016,08,16,05,41,13.00
2016,08,16,05,42,12.90
2016,08,16,05,43,12.90
2016,08,16,05,44,12.90
2016,08,16,05,45,12.90
2016,08,16,05,46,12.90
2016,08,16,05,47,12.90
2016,08,16,05,48,12.90
2016,08,16,05,49,12.90
2016,08,16,05,50,12.90
2016,08,16,05,51,12.80
2016,08,16,05,52,12.80
2016,08,16,05,53,12.80
2016,08,16,05,54,12.80
2016,08,16,05,55,12.80
2016,08,16,05,56,12.80
2016,08,16,05,57,12.80
2016,08,16,05,58,12.80
2016,08,16,05,59,12.80
2016,08,16,06,00,12.80
2016,08,16,06,01,12.80
2016,08,16,06,02,12.80
2016,08,16,06,03,12.80
2016,08,16,06,04,12.80
2016,08,16,06,05,12.80
2016,08,16,06,06,12.80
2016,08,16,06,07,12.80
2016,08,16,06,08,12.80
2016,08,16,06,09,12.90
2016,08,16,06,10,12.90
2016,08,16,06,11,12.90
2016,08,16,06,12,12.90
2016,08,16,06,13,12.90
2016,08,16,06,14,13.00
2016,08,16,06,15,13.00
2016,08,16,06,16,13.00
2016,08,16,06,17,13.10
2016,08,16,06,18,13.10
2016,08,16,06,19,13.10
2016,08,16,06,20,13.10
2016,08,16,06,21,13.10
2016,08,16,06,22,13.10
2016,08,16,06,23,13.10
2016,08,16,06,24,13.00
2016,08,16,06,25,13.00
2016,08,16,06,26,12.90
2016,08,16,06,27,12.90
2016,08,16,06,28,12.90
2016,08,16,06,29,12.90
2016,08,16,06,30,12.90
2016,08,16,06,31,12.80
2016,08,16,06,32,12.80
2016,08,16,06,33,12.80
2016,08,16,06,34,12.80
2016,08,16,06,35,12.80
2016,08,16,06,36,12.80
2016,08,16,06,37,12.80
2016,08,16,06,38,12.70
2016,08,16,06,39,12.70
2016,08,16,06,40,12.70
2016,08,16,06,41,12.70
2016,08,16,06,42,12.70
2016,08,16,06,43,12.70
2016,08,16,06,44,12.70
2016,08,16,06,45,12.70
2016,08,16,06,46,12.70
2016,08,16,06,47,12.80
2016,08,16,06,48,12.80
2016,08,16,06,49,12.90
2016,08,16,06,50,12.90
2016,08,16,06,51,13.00
2016,08,16,06,52,13.00
2016,08,16,06,53,13.10
2016,08,16,06,54,13.20
2016,08,16,06,55,13.20
2016,08,16,06,56,13.30
2016,08,16,06,57,13.40
2016,08,16,06,58,13.40
2016,08,16,06,59,13.50
2016,08,16,07,00,13.50
2016,08,16,07,01,13.60
2016,08,16,07,02,13.60
2016,08,16,07,03,13.60
2016,08,16,07,04,13.70
2016,08,16,07,05,13.70
2016,08,16,07,06,13.80
2016,08,16,07,07,13.80
2016,08,16,07,08,13.80
2016,08,16,07,09,13.90
2016,08,16,07,10,13.90
2016,08,16,07,11,13.90
2016,08,16,07,12,13.90
2016,08,16,07,13,14.00
2016,08,16,07,14,14.00
2016,08,16,07,15,14.00
2016,08,16,07,16,14.10
2016,08,16,07,17,14.10
2016,08,16,07,18,14.10
2016,08,16,07,19,14.20
2016,08,16,07,20,14.20
2016,08,16,07,21,14.20
2016,08,16,07,22,14.30
2016,08,16,07,23,14.30
2016,08,16,07,24,14.40
2016,08,16,07,25,14.40
2016,08,16,07,26,14.50
2016,08,16,07,27,14.50
2016,08,16,07,28,14.60
2016,08,16,07,29,14.60
2016,08,16,07,30,14.60
2016,08,16,07,31,14.60
2016,08,16,07,32,14.70
2016,08,16,07,33,14.70
2016,08,16,07,34,14.70
2016,08,16,07,35,14.80
2016,08,16,07,36,14.90
2016,08,16,07,37,15.00
2016,08,16,07,38,15.10
2016,08,16,07,39,15.30
2016,08,16,07,40,15.40
2016,08,16,07,41,15.60
2016,08,16,07,42,15.70
2016,08,16,07,43,15.80
2016,08,16,07,44,16.00
2016,08,16,07,45,16.10
2016,08,16,07,46,16.30
2016,08,16,07,47,16.30
2016,08,16,07,48,16.40
2016,08,16,07,49,16.50
2016,08,16,07,50,16.50
2016,08,16,07,51,16.60
2016,08,16,07,52,16.60
2016,08,16,07,53,16.60
2016,08,16,07,54,16.60
2016,08,16,07,55,16.70
2016,08,16,07,56,16.70
2016,08,16,07,57,16.80
2016,08,16,07,58,16.90
2016,08,16,07,59,17.00
2016,08,16,08,00,17.00
2016,08,16,08,01,17.10
2016,08,16,08,02,17.10
2016,08,16,08,03,17.20
2016,08,16,08,04,17.20
2016,08,16,08,05,17.30
2016,08,16,08,06,17.30
2016,08,16,08,07,17.40
2016,08,16,08,08,17.50
2016,08,16,08,09,17.50
2016,08,16,08,10,17.60
2016,08,16,08,11,17.70
2016,08,16,08,12,17.70
2016,08,16,08,13,17.80
2016,08,16,08,14,17.80
2016,08,16,08,15,17.90
2016,08,16,08,16,18.00
2016,08,16,08,17,18.00
2016,08,16,08,18,18.10
2016,08,16,08,19,18.10
2016,08,16,08,20,18.10
2016,08,16,08,21,18.10
2016,08,16,08,22,18.20
2016,08,16,08,23,18.20
2016,08,16,08,24,18.30
2016,08,16,08,25,18.40
2016,08,16,08,26,18.40
2016,08,16,08,27,18.40
2016,08,16,08,28,18.40
2016,08,16,08,29,18.40
2016,08,16,08,30,18.40
2016,08,16,08,31,18.40
2016,08,16,08,32,18.40
2016,08,16,08,33,18.40
2016,08,16,08,34,18.40
2016,08,16,08,35,18.50
2016,08,16,08,36,18.50
2016,08,16,08,37,18.60
2016,08,16,08,38,18.60
2016,08,16,08,39,18.70
2016,08,16,08,40,18.70
2016,08,16,08,41,18.70
2016,08,16,08,42,18.80
2016,08,16,08,43,18.80
2016,08,16,08,44,18.80
2016,08,16,08,45,18.90
2016,08,16,08,46,18.90
2016,08,16,08,47,19.00
2016,08,16,08,48,19.10
2016,08,16,08,49,19.10
2016,08,16,08,50,19.10
2016,08,16,08,51,19.10
2016,08,16,08,52,19.10
2016,08,16,08,53,19.20
2016,08,16,08,54,19.20
2016,08,16,08,55,19.30
2016,08,16,08,56,19.30
2016,08,16,08,57,19.30
2016,08,16,08,58,19.30
2016,08,16,08,59,19.40
2016,08,16,09,00,19.50
2016,08,16,09,01,19.50
2016,08,16,09,02,19.60
2016,08,16,09,03,19.60
2016,08,16,09,04,19.60
2016,08,16,09,05,19.70
2016,08,16,09,06,19.70
2016,08,16,09,07,19.70
2016,08,16,09,08,19.80
2016,08,16,09,09,19.80
2016,08,16,09,10,19.80
2016,08,16,09,11,19.80
2016,08,16,09,12,19.80
2016,08,16,09,13,19.90
2016,08,16,09,14,19.90
2016,08,16,09,15,19.90
2016,08,16,09,16,20.00
2016,08,16,09,17,20.00
2016,08,16,09,18,20.10
2016,08,16,09,19,20.10
2016,08,16,09,20,20.20
2016,08,16,09,21,20.20
2016,08,16,09,22,20.30
2016,08,16,09,23,20.30
2016,08,16,09,24,20.40
2016,08,16,09,25,20.50
2016,08,16,09,26,20.60
2016,08,16,09,27,20.60
2016,08,16,09,28,20.70
2016,08,16,09,29,20.70
2016,08,16,09,30,20.70
2016,08,16,09,31,20.70
2016,08,16,09,32,20.60
2016,08,16,09,33,20.60
2016,08,16,09,34,20.50
2016,08,16,09,35,20.50
2016,08,16,09,36,20.50
2016,08,16,09,37,20.50
2016,08,16,09,38,20.50
2016,08,16,09,39,20.50
2016,08,16,09,40,20.50
2016,08,16,09,41,20.60
2016,08,16,09,42,20.60
2016,08,16,09,43,20.70
2016,08,16,09,44,20.80
2016,08,16,09,45,20.80
2016,08,16,09,46,20.80
2016,08,16,09,47,20.80
2016,08,16,09,48,20.80
2016,08,16,09,49,20.80
2016,08,16,09,50,20.90
2016,08,16,09,51,20.90
2016,08,16,09,52,21.00
2016,08,16,09,53,21.00
2016,08,16,09,54,21.10
2016,08,16,09,55,21.00
2016,08,16,09,56,21.00
2016,08,16,09,57,20.90
2016,08,16,09,58,20.90
2016,08,16,09,59,20.90
2016,08,16,10,00,20.90
2016,08,16,10,01,20.90
2016,08,16,10,02,20.90
2016,08,16,10,03,21.00
2016,08,16,10,04,21.00
2016,08,16,10,05,20.90
2016,08,16,10,06,20.90
2016,08,16,10,07,20.90
2016,08,16,10,08,20.80
2016,08,16,10,09,20.80
2016,08,16,10,10,20.80
2016,08,16,10,11,20.80
2016,08,16,10,12,20.80
2016,08,16,10,13,20.80
2016,08,16,10,14,20.80
2016,08,16,10,15,20.70
2016,08,16,10,16,20.70
2016,08,16,10,17,20.70
2016,08,16,10,18,20.70
2016,08,16,10,19,20.70
2016,08,16,10,20,20.70
2016,08,16,10,21,20.60
2016,08,16,10,22,20.60
2016,08,16,10,23,20.70
2016,08,16,10,24,20.70
2016,08,16,10,25,20.70
2016,08,16,10,26,20.80
2016,08,16,10,27,20.80
2016,08,16,10,28,20.80
2016,08,16,10,29,20.90
2016,08,16,10,30,21.00
2016,08,16,10,31,21.00
2016,08,16,10,32,21.10
2016,08,16,10,33,21.00
2016,08,16,10,34,21.00
2016,08,16,10,35,20.90
2016,08,16,10,36,20.90
2016,08,16,10,37,20.90
2016,08,16,10,38,20.90
2016,08,16,10,39,20.90
2016,08,16,10,40,20.80
2016,08,16,10,41,20.80
2016,08,16,10,42,20.70
2016,08,16,10,43,20.60
2016,08,16,10,44,20.60
2016,08,16,10,45,20.60
2016,08,16,10,46,20.60
2016,08,16,10,47,20.70
2016,08,16,10,48,20.70
2016,08,16,10,49,20.70
2016,08,16,10,50,20.70
2016,08,16,10,51,20.80
2016,08,16,10,52,20.80
2016,08,16,10,53,20.80
2016,08,16,10,54,20.80
2016,08,16,10,55,20.90
2016,08,16,10,56,20.90
2016,08,16,10,57,21.00
2016,08,16,10,58,21.10
2016,08,16,10,59,21.10
2016,08,16,11,00,21.20
2016,08,16,11,01,21.20
2016,08,16,11,02,21.10
2016,08,16,11,03,21.00
2016,08,16,11,04,20.90
2016,08,16,11,05,20.80
2016,08,16,11,06,20.80
2016,08,16,11,07,20.80
2016,08,16,11,08,20.80
2016,08,16,11,09,20.90
2016,08,16,11,10,20.90
2016,08,16,11,11,20.90
2016,08,16,11,12,20.80
2016,08,16,11,13,20.80
2016,08,16,11,14,20.80
2016,08,16,11,15,20.90
2016,08,16,11,16,20.90
2016,08,16,11,17,20.90
2016,08,16,11,18,20.90
2016,08,16,11,19,20.90
2016,08,16,11,20,20.80
2016,08,16,11,21,20.70
2016,08,16,11,22,20.50
2016,08,16,11,23,20.40
2016,08,16,11,24,20.30
2016,08,16,11,25,20.30
2016,08,16,11,26,20.30
2016,08,16,11,27,20.20
2016,08,16,11,28,20.20
2016,08,16,11,29,20.20
2016,08,16,11,30,20.20
2016,08,16,11,31,20.20
2016,08,16,11,32,20.20
2016,08,16,11,33,20.30
2016,08,16,11,34,20.30
2016,08,16,11,35,20.30
2016,08,16,11,36,20.30
2016,08,16,11,37,20.40
2016,08,16,11,38,20.50
2016,08,16,11,39,20.60
2016,08,16,11,40,20.70
2016,08,16,11,41,20.70
2016,08,16,11,42,20.60
2016,08,16,11,43,20.60
2016,08,16,11,44,20.60
2016,08,16,11,45,20.60
2016,08,16,11,46,20.60
2016,08,16,11,47,20.70
2016,08,16,11,48,20.70
2016,08,16,11,49,20.70
2016,08,16,11,50,20.70
2016,08,16,11,51,20.70
2016,08,16,11,52,20.70
2016,08,16,11,53,20.80
2016,08,16,11,54,20.80
2016,08,16,11,55,20.70
2016,08,16,11,56,20.70
2016,08,16,11,57,20.70
2016,08,16,11,58,20.80
2016,08,16,11,59,20.90
2016,08,16,12,00,21.00
2016,08,16,12,01,21.10
2016,08,16,12,02,21.10
2016,08,16,12,03,21.10
2016,08,16,12,04,21.10
2016,08,16,12,05,21.00
2016,08,16,12,06,20.90
2016,08,16,12,07,20.80
2016,08,16,12,08,20.70
2016,08,16,12,09,20.60
2016,08,16,12,10,20.50
2016,08,16,12,11,20.50
2016,08,16,12,12,20.50
2016,08,16,12,13,20.50
2016,08,16,12,14,20.50
2016,08,16,12,15,20.60
2016,08,16,12,16,20.60
2016,08,16,12,17,20.60
2016,08,16,12,18,20.60
2016,08,16,12,19,20.60
2016,08,16,12,20,20.70
2016,08,16,12,21,20.80
2016,08,16,12,22,20.80
2016,08,16,12,23,20.90
2016,08,16,12,24,21.00
2016,08,16,12,25,20.90
2016,08,16,12,26,20.80
2016,08,16,12,27,20.80
2016,08,16,12,28,20.80
2016,08,16,12,29,20.80
2016,08,16,12,30,20.90
2016,08,16,12,31,20.90
2016,08,16,12,32,21.00
2016,08,16,12,33,21.10
2016,08,16,12,34,21.10
2016,08,16,12,35,21.10
2016,08,16,12,36,21.10
2016,08,16,12,37,21.10
2016,08,16,12,38,21.10
2016,08,16,12,39,21.10
2016,08,16,12,40,21.10
2016,08,16,12,41,21.20
2016,08,16,12,42,21.20
2016,08,16,12,43,21.20
2016,08,16,12,44,21.20
2016,08,16,12,45,21.10
2016,08,16,12,46,21.10
2016,08,16,12,47,21.10
2016,08,16,12,48,21.10
2016,08,16,12,49,21.10
2016,08,16,12,50,21.20
2016,08,16,12,51,21.20
2016,08,16,12,52,21.30
2016,08,16,12,53,21.30
2016,08,16,12,54,21.40
2016,08,16,12,55,21.60
2016,08,16,12,56,21.70
2016,08,16,12,57,21.80
2016,08,16,12,58,21.90
2016,08,16,12,59,21.90
2016,08,16,13,00,21.90
2016,08,16,13,01,21.80
2016,08,16,13,02,21.80
2016,08,16,13,03,21.80
2016,08,16,13,04,21.70
2016,08,16,13,05,21.80
2016,08,16,13,06,21.90
2016,08,16,13,07,22.00
2016,08,16,13,08,22.10
2016,08,16,13,09,22.10
2016,08,16,13,10,22.10
2016,08,16,13,11,22.00
2016,08,16,13,12,21.90
2016,08,16,13,13,21.90
2016,08,16,13,14,21.90
2016,08,16,13,15,21.80
2016,08,16,13,16,21.80
2016,08,16,13,17,21.70
2016,08,16,13,18,21.60
2016,08,16,13,19,21.60
2016,08,16,13,20,21.60
2016,08,16,13,21,21.60
2016,08,16,13,22,21.60
2016,08,16,13,23,21.50
2016,08,16,13,24,21.50
2016,08,16,13,25,21.50
2016,08,16,13,26,21.60
2016,08,16,13,27,21.60
2016,08,16,13,28,21.60
2016,08,16,13,29,21.60
2016,08,16,13,30,21.60
2016,08,16,13,31,21.60
2016,08,16,13,32,21.60
2016,08,16,13,33,21.60
2016,08,16,13,34,21.50
2016,08,16,13,35,21.50
2016,08,16,13,36,21.50
2016,08,16,13,37,21.50
2016,08,16,13,38,21.60
2016,08,16,13,39,21.60
2016,08,16,13,40,21.70
2016,08,16,13,41,21.70
2016,08,16,13,42,21.70
2016,08,16,13,43,21.70
2016,08,16,13,44,21.80
2016,08,16,13,45,21.80
2016,08,16,13,46,21.90
2016,08,16,13,47,21.90
2016,08,16,13,48,21.90
2016,08,16,13,49,21.90
2016,08,16,13,50,22.00
2016,08,16,13,51,22.10
2016,08,16,13,52,22.20
2016,08,16,13,53,22.10
2016,08,16,13,54,22.10
2016,08,16,13,55,22.00
2016,08,16,13,56,21.90
2016,08,16,13,57,21.90
2016,08,16,13,58,21.80
2016,08,16,13,59,21.80
2016,08,16,14,00,21.90
2016,08,16,14,01,21.90
2016,08,16,14,02,22.00
2016,08,16,14,03,22.00
2016,08,16,14,04,22.00
2016,08,16,14,05,21.90
2016,08,16,14,06,21.90
2016,08,16,14,07,21.90
2016,08,16,14,08,21.90
2016,08,16,14,09,21.90
2016,08,16,14,10,21.80
2016,08,16,14,11,21.80
2016,08,16,14,12,21.70
2016,08,16,14,13,21.70
2016,08,16,14,14,21.70
2016,08,16,14,15,21.60
2016,08,16,14,16,21.60
2016,08,16,14,17,21.70
2016,08,16,14,18,21.70
2016,08,16,14,19,21.80
2016,08,16,14,20,21.80
2016,08,16,14,21,22.00
2016,08,16,14,22,22.00
2016,08,16,14,23,22.00
2016,08,16,14,24,22.00
2016,08,16,14,25,22.00
2016,08,16,14,26,22.00
2016,08,16,14,27,22.10
2016,08,16,14,28,22.10
2016,08,16,14,29,22.20
2016,08,16,14,30,22.10
2016,08,16,14,31,22.10
2016,08,16,14,32,21.90
2016,08,16,14,33,21.80
2016,08,16,14,34,21.80
2016,08,16,14,35,21.70
2016,08,16,14,36,21.70
2016,08,16,14,37,21.70
2016,08,16,14,38,21.70
2016,08,16,14,39,21.70
2016,08,16,14,40,21.70
2016,08,16,14,41,21.80
2016,08,16,14,42,21.90
2016,08,16,14,43,22.00
2016,08,16,14,44,22.00
2016,08,16,14,45,22.10
2016,08,16,14,46,22.10
2016,08,16,14,47,22.10
2016,08,16,14,48,22.20
2016,08,16,14,49,22.20
2016,08,16,14,50,22.20
2016,08,16,14,51,22.20
2016,08,16,14,52,22.30
2016,08,16,14,53,22.30
2016,08,16,14,54,22.30
2016,08,16,14,55,22.40
2016,08,16,14,56,22.50
2016,08,16,14,57,22.60
2016,08,16,14,58,22.70
2016,08,16,14,59,22.70
2016,08,16,15,00,22.70
2016,08,16,15,01,22.70
2016,08,16,15,02,22.70
2016,08,16,15,03,22.80
2016,08,16,15,04,22.90
2016,08,16,15,05,22.80
2016,08,16,15,06,22.90
2016,08,16,15,07,22.80
2016,08,16,15,08,22.90
2016,08,16,15,09,22.90
2016,08,16,15,10,22.90
2016,08,16,15,11,22.90
2016,08,16,15,12,23.00
2016,08,16,15,13,23.00
2016,08,16,15,14,22.90
2016,08,16,15,15,22.90
2016,08,16,15,16,22.90
2016,08,16,15,17,22.90
2016,08,16,15,18,22.90
2016,08,16,15,19,22.90
2016,08,16,15,20,22.90
2016,08,16,15,21,22.80
2016,08,16,15,22,22.70
2016,08,16,15,23,22.70
2016,08,16,15,24,22.60
2016,08,16,15,25,22.60
2016,08,16,15,26,22.60
2016,08,16,15,27,22.60
2016,08,16,15,28,22.60
2016,08,16,15,29,22.60
2016,08,16,15,30,22.70
2016,08,16,15,31,22.70
2016,08,16,15,32,22.70
2016,08,16,15,33,22.70
2016,08,16,15,34,22.70
2016,08,16,15,35,22.70
2016,08,16,15,36,22.70
2016,08,16,15,37,22.70
2016,08,16,15,38,22.70
2016,08,16,15,39,22.80
2016,08,16,15,40,22.80
2016,08,16,15,41,22.70
2016,08,16,15,42,22.60
2016,08,16,15,43,22.60
2016,08,16,15,44,22.60
2016,08,16,15,45,22.50
2016,08,16,15,46,22.50
2016,08,16,15,47,22.50
2016,08,16,15,48,22.60
2016,08,16,15,49,22.70
2016,08,16,15,50,22.70
2016,08,16,15,51,22.70
2016,08,16,15,52,22.80
2016,08,16,15,53,22.90
2016,08,16,15,54,22.90
2016,08,16,15,55,22.90
2016,08,16,15,56,22.90
2016,08,16,15,57,22.90
2016,08,16,15,58,22.90
2016,08,16,15,59,22.80
2016,08,16,16,00,22.70
2016,08,16,16,01,22.60
2016,08,16,16,02,22.60
2016,08,16,16,03,22.60
2016,08,16,16,04,22.70
2016,08,16,16,05,22.70
2016,08,16,16,06,22.80
2016,08,16,16,07,22.90
2016,08,16,16,08,23.00
2016,08,16,16,09,23.10
2016,08,16,16,10,23.10
2016,08,16,16,11,23.00
2016,08,16,16,12,22.90
2016,08,16,16,13,22.80
2016,08,16,16,14,22.80
2016,08,16,16,15,22.80
2016,08,16,16,16,22.80
2016,08,16,16,17,22.80
2016,08,16,16,18,22.90
2016,08,16,16,19,22.90
2016,08,16,16,20,22.80
2016,08,16,16,21,22.80
2016,08,16,16,22,22.80
2016,08,16,16,23,22.90
2016,08,16,16,24,22.90
2016,08,16,16,25,22.90
2016,08,16,16,26,23.00
2016,08,16,16,27,23.10
2016,08,16,16,28,23.20
2016,08,16,16,29,23.20
2016,08,16,16,30,23.20
2016,08,16,16,31,23.10
2016,08,16,16,32,23.10
2016,08,16,16,33,23.10
2016,08,16,16,34,23.20
2016,08,16,16,35,23.20
2016,08,16,16,36,23.30
2016,08,16,16,37,23.40
2016,08,16,16,38,23.40
2016,08,16,16,39,23.50
2016,08,16,16,40,23.50
2016,08,16,16,41,23.60
2016,08,16,16,42,23.60
2016,08,16,16,43,23.60
2016,08,16,16,44,23.70
2016,08,16,16,45,23.70
2016,08,16,16,46,23.70
2016,08,16,16,47,23.60
2016,08,16,16,48,23.50
2016,08,16,16,49,23.50
2016,08,16,16,50,23.40
2016,08,16,16,51,23.40
2016,08,16,16,52,23.30
2016,08,16,16,53,23.20
2016,08,16,16,54,23.20
2016,08,16,16,55,23.20
2016,08,16,16,56,23.20
2016,08,16,16,57,23.10
2016,08,16,16,58,23.10
2016,08,16,16,59,23.00
2016,08,16,17,00,23.00
2016,08,16,17,01,23.00
2016,08,16,17,02,23.00
2016,08,16,17,03,22.90
2016,08,16,17,04,22.80
2016,08,16,17,05,22.60
2016,08,16,17,06,22.50
2016,08,16,17,07,22.50
2016,08,16,17,08,22.40
2016,08,16,17,09,22.30
2016,08,16,17,10,22.30
2016,08,16,17,11,22.30
2016,08,16,17,12,22.30
2016,08,16,17,13,22.30
2016,08,16,17,14,22.40
2016,08,16,17,15,22.40
2016,08,16,17,16,22.30
2016,08,16,17,17,22.30
2016,08,16,17,18,22.30
2016,08,16,17,19,22.30